TimeMDT,TemperatureF,Dew PointF,Humidity,Sea Level PressureIn,VisibilityMPH,Wind Direction,Wind SpeedMPH,Gust SpeedMPH,PrecipitationIn,Events,Conditions,WindDirDegrees,DateUTC
12:00 AM,36,36,98,30.10,,NNE,10.4,,,,,20,2013-08-07 06:00:00
12:00 AM,35.8,35.8,100,30.10,-9999.0,NNE,11.5,-,N/A,,Unknown,20,2013-08-07 06:00:00
1:00 AM,34.2,34.2,100,30.11,-9999.0,North,11.5,-,N/A,,Unknown,10,2013-08-07 07:00:00
2:00 AM,33.6,33.6,100,30.12,-9999.0,NNE,20.7,-,N/A,,Unknown,20,2013-08-07 08:00:00
3:00 AM,33.1,33.1,100,30.12,-9999.0,NNE,21.9,-,N/A,,Unknown,20,2013-08-07 09:00:00
4:00 AM,33.6,33.3,99,30.14,-9999.0,NNE,18.4,-,N/A,,Unknown,20,2013-08-07 10:00:00
5:00 AM,33.6,33.1,98,30.16,-9999.0,North,18.4,-,N/A,,Unknown,10,2013-08-07 11:00:00
6:00 AM,33,33,98,30.18,,North,18.4,,,,,10,2013-08-07 12:00:00
6:00 AM,33.4,32.7,97,30.18,-9999.0,North,19.6,-,N/A,,Unknown,0,2013-08-07 12:00:00
7:00 AM,33.3,32.4,96,30.19,-9999.0,North,19.6,-,N/A,,Unknown,360,2013-08-07 13:00:00
8:00 AM,30.7,30.7,100,30.20,-9999.0,North,20.7,-,N/A,,Unknown,360,2013-08-07 14:00:00
9:00 AM,31.8,30.2,94,30.21,-9999.0,North,19.6,-,N/A,,Unknown,0,2013-08-07 15:00:00
10:00 AM,32.0,30.7,95,30.22,-9999.0,North,16.1,-,N/A,,Unknown,350,2013-08-07 16:00:00
11:00 AM,31.3,28.8,90,30.22,-9999.0,North,20.7,-,N/A,,Unknown,350,2013-08-07 17:00:00
12:00 PM,30,28,87,30.23,,North,19.6,,,,,350,2013-08-07 18:00:00
12:00 PM,30.4,27.7,90,30.23,-9999.0,North,20.7,-,N/A,,Unknown,350,2013-08-07 18:00:00
1:00 PM,30.6,27.9,90,30.24,-9999.0,North,20.7,-,N/A,,Unknown,350,2013-08-07 19:00:00
2:00 PM,29.7,27.1,90,30.24,-9999.0,North,18.4,24.2,N/A,,Unknown,0,2013-08-07 20:00:00
3:00 PM,30.2,27.9,91,30.25,-9999.0,NNW,17.3,-,N/A,,Unknown,340,2013-08-07 21:00:00
4:00 PM,30.9,27.5,87,30.25,-9999.0,North,17.3,-,N/A,,Unknown,350,2013-08-07 22:00:00
5:00 PM,30.4,27.5,89,30.25,-9999.0,North,18.4,-,N/A,,Unknown,350,2013-08-07 23:00:00
6:00 PM,30,27,85,30.25,,NNW,16.1,,,,,340,2013-08-08 00:00:00
6:00 PM,30.2,27.3,89,30.25,-9999.0,NNW,13.8,-,N/A,,Unknown,340,2013-08-08 00:00:00
7:00 PM,29.3,27.3,92,30.26,-9999.0,NW,15.0,-,N/A,,Unknown,320,2013-08-08 01:00:00
8:00 PM,28.6,27.0,94,30.25,-9999.0,NNW,12.7,-,N/A,,Unknown,330,2013-08-08 02:00:00
9:00 PM,27.9,26.8,96,30.24,-9999.0,NW,13.8,-,N/A,,Unknown,320,2013-08-08 03:00:00
10:00 PM,27.5,26.8,97,30.25,-9999.0,NW,16.1,-,N/A,,Unknown,310,2013-08-08 04:00:00
11:00 PM,27.0,26.1,96,30.24,-9999.0,NNW,9.2,-,N/A,,Unknown,330,2013-08-08 05:00:00